Time,TemperatureF,DewpointF,PressureIn,WindDirection,WindDirectionDegrees,WindSpeedMPH,WindSpeedGustMPH,Humidity,HourlyPrecipIn,Conditions,Clouds,dailyrainin,SoftwareType,DateUTC
2013-09-02 00:01:00,69.7,68.5,29.78,ESE,103,0.0,0.0,96,0.00,,,0.15,Wunderground v.1.15,2013-09-02 04:01:00,
2013-09-02 00:02:00,69.6,68.4,29.79,ESE,103,0.0,0.0,96,0.00,,,0.15,Wunderground v.1.15,2013-09-02 04:02:00,
2013-09-02 00:03:00,69.6,68.4,29.78,ESE,103,0.0,0.0,96,0.00,,,0.15,Wunderground v.1.15,2013-09-02 04:03:00,
2013-09-02 00:05:00,69.5,68.3,29.78,ESE,103,0.0,0.0,96,0.00,,,0.15,Wunderground v.1.15,2013-09-02 04:05:00,
2013-09-02 00:08:00,69.5,68.3,29.79,ESE,103,0.0,0.0,96,0.00,,,0.00,Wunderground v.1.15,2013-09-02 04:08:00,
2013-09-02 00:14:00,69.4,68.2,29.79,ESE,103,0.0,0.0,96,0.00,,,0.00,Wunderground v.1.15,2013-09-02 04:14:00,
2013-09-02 00:19:00,69.3,68.1,29.79,ESE,103,0.0,0.0,96,0.00,,,0.00,Wunderground v.1.15,2013-09-02 04:19:00,
2013-09-02 00:25:00,69.2,68.0,29.78,ESE,103,0.0,0.0,96,0.00,,,0.00,Wunderground v.1.15,2013-09-02 04:25:00,
2013-09-02 00:30:00,69.0,67.8,29.78,ESE,103,0.0,0.0,96,0.00,,,0.00,Wunderground v.1.15,2013-09-02 04:30:00,
2013-09-02 00:35:00,69.0,67.8,29.78,ESE,103,0.0,0.0,96,0.00,,,0.00,Wunderground v.1.15,2013-09-02 04:35:00,
2013-09-02 00:40:00,69.0,67.8,29.78,ESE,103,0.0,0.0,96,0.00,,,0.00,Wunderground v.1.15,2013-09-02 04:40:00,
2013-09-02 00:45:00,69.0,67.8,29.78,ESE,103,0.0,0.0,96,0.00,,,0.00,Wunderground v.1.15,2013-09-02 04:45:00,
2013-09-02 00:51:00,68.8,67.6,29.78,ESE,103,0.0,0.0,96,0.00,,,0.00,Wunderground v.1.15,2013-09-02 04:51:00,
2013-09-02 00:56:00,68.6,67.4,29.78,ESE,103,0.0,0.0,96,0.00,,,0.00,Wunderground v.1.15,2013-09-02 04:56:00,
2013-09-02 01:02:00,68.5,67.3,29.78,ESE,103,0.0,0.0,96,0.00,,,0.00,Wunderground v.1.15,2013-09-02 05:02:00,
2013-09-02 01:07:00,68.5,67.3,29.78,ESE,103,0.0,0.0,96,0.00,,,0.00,Wunderground v.1.15,2013-09-02 05:07:00,
2013-09-02 01:12:00,68.3,67.1,29.78,ESE,103,0.0,0.0,96,0.00,,,0.00,Wunderground v.1.15,2013-09-02 05:12:00,
2013-09-02 01:18:00,68.2,67.0,29.78,ESE,103,0.0,0.0,96,0.00,,,0.00,Wunderground v.1.15,2013-09-02 05:18:00,
2013-09-02 01:24:00,68.2,67.0,29.78,ESE,103,0.0,0.0,96,0.00,,,0.00,Wunderground v.1.15,2013-09-02 05:24:00,
2013-09-02 01:29:00,68.2,67.0,29.78,ESE,103,0.0,0.0,96,0.00,,,0.00,Wunderground v.1.15,2013-09-02 05:29:00,
2013-09-02 01:34:00,68.1,66.9,29.78,ESE,103,0.0,0.0,96,0.00,,,0.00,Wunderground v.1.15,2013-09-02 05:34:00,
2013-09-02 01:40:00,68.0,66.8,29.78,ESE,103,0.0,0.0,96,0.00,,,0.00,Wunderground v.1.15,2013-09-02 05:40:00,
2013-09-02 01:45:00,67.9,66.7,29.78,ESE,103,0.0,0.0,96,0.00,,,0.00,Wunderground v.1.15,2013-09-02 05:45:00,
2013-09-02 01:51:00,67.9,66.7,29.78,ESE,103,0.0,0.0,96,0.00,,,0.00,Wunderground v.1.15,2013-09-02 05:51:00,
2013-09-02 01:57:00,67.8,66.6,29.78,ESE,103,0.0,0.0,96,0.00,,,0.00,Wunderground v.1.15,2013-09-02 05:57:00,
2013-09-02 02:02:00,67.8,66.6,29.78,ESE,103,0.0,0.0,96,0.00,,,0.00,Wunderground v.1.15,2013-09-02 06:02:00,
2013-09-02 02:08:00,67.7,66.5,29.77,ESE,103,0.0,0.0,96,0.00,,,0.00,Wunderground v.1.15,2013-09-02 06:08:00,
2013-09-02 02:13:00,67.6,66.4,29.77,ESE,103,0.0,0.0,96,0.00,,,0.00,Wunderground v.1.15,2013-09-02 06:13:00,
2013-09-02 02:18:00,67.6,66.4,29.77,ESE,103,0.0,0.0,96,0.00,,,0.00,Wunderground v.1.15,2013-09-02 06:18:00,
2013-09-02 02:23:00,67.5,66.3,29.77,ESE,103,0.0,0.0,96,0.00,,,0.00,Wunderground v.1.15,2013-09-02 06:23:00,
2013-09-02 02:29:00,67.5,66.3,29.77,ESE,103,0.0,0.0,96,0.00,,,0.00,Wunderground v.1.15,2013-09-02 06:29:00,
2013-09-02 02:35:00,67.7,66.8,29.77,ESE,103,0.0,0.0,97,0.00,,,0.00,Wunderground v.1.15,2013-09-02 06:35:00,
2013-09-02 02:40:00,67.7,66.8,29.77,ESE,103,0.0,0.0,97,0.00,,,0.00,Wunderground v.1.15,2013-09-02 06:40:00,
2013-09-02 02:45:00,67.6,66.4,29.77,ESE,103,0.0,0.0,96,0.00,,,0.00,Wunderground v.1.15,2013-09-02 06:45:00,
2013-09-02 02:50:00,67.5,66.3,29.77,ESE,103,0.0,0.0,96,0.00,,,0.00,Wunderground v.1.15,2013-09-02 06:50:00,
2013-09-02 02:55:00,67.4,66.2,29.77,ESE,103,0.0,0.0,96,0.00,,,0.00,Wunderground v.1.15,2013-09-02 06:55:00,
2013-09-02 03:00:00,67.3,66.1,29.77,ESE,103,0.0,0.0,96,0.00,,,0.00,Wunderground v.1.15,2013-09-02 07:00:00,
2013-09-02 03:06:00,67.4,66.5,29.77,ESE,103,0.0,0.0,97,0.00,,,0.00,Wunderground v.1.15,2013-09-02 07:06:00,
2013-09-02 03:11:00,67.4,66.5,29.77,ESE,103,0.0,0.0,97,0.00,,,0.00,Wunderground v.1.15,2013-09-02 07:11:00,
2013-09-02 03:16:00,67.5,66.6,29.77,ESE,103,0.0,0.0,97,0.00,,,0.00,Wunderground v.1.15,2013-09-02 07:16:00,
2013-09-02 03:22:00,67.7,66.8,29.77,ESE,103,0.0,0.0,97,0.00,,,0.00,Wunderground v.1.15,2013-09-02 07:22:00,
2013-09-02 03:27:00,67.8,66.9,29.77,ESE,103,0.0,0.0,97,0.00,,,0.00,Wunderground v.1.15,2013-09-02 07:27:00,
2013-09-02 03:32:00,67.9,67.0,29.77,ESE,103,0.0,0.0,97,0.00,,,0.00,Wunderground v.1.15,2013-09-02 07:32:00,
2013-09-02 03:37:00,68.0,67.1,29.77,ESE,103,0.0,0.0,97,0.00,,,0.00,Wunderground v.1.15,2013-09-02 07:37:00,
2013-09-02 03:43:00,67.9,67.0,29.77,ESE,103,0.0,0.0,97,0.00,,,0.00,Wunderground v.1.15,2013-09-02 07:43:00,
2013-09-02 03:48:00,67.8,66.9,29.77,ESE,103,0.0,0.0,97,0.00,,,0.00,Wunderground v.1.15,2013-09-02 07:48:00,
2013-09-02 03:53:00,67.8,66.9,29.77,ESE,103,0.0,0.0,97,0.00,,,0.00,Wunderground v.1.15,2013-09-02 07:53:00,
2013-09-02 03:58:00,67.9,67.0,29.77,ESE,103,0.0,0.0,97,0.00,,,0.00,Wunderground v.1.15,2013-09-02 07:58:00,
2013-09-02 04:03:00,67.9,67.0,29.77,ESE,103,0.0,0.0,97,0.00,,,0.00,Wunderground v.1.15,2013-09-02 08:03:00,
2013-09-02 04:09:00,67.9,67.0,29.77,ESE,103,0.0,0.0,97,0.00,,,0.00,Wunderground v.1.15,2013-09-02 08:09:00,
2013-09-02 04:14:00,68.0,67.1,29.77,ESE,103,0.0,0.0,97,0.00,,,0.00,Wunderground v.1.15,2013-09-02 08:14:00,
2013-09-02 04:19:00,68.0,67.1,29.77,ESE,103,0.0,0.0,97,0.00,,,0.00,Wunderground v.1.15,2013-09-02 08:19:00,
2013-09-02 04:24:00,68.0,67.1,29.77,ESE,103,0.0,0.0,97,0.00,,,0.00,Wunderground v.1.15,2013-09-02 08:24:00,
2013-09-02 04:29:00,68.1,67.2,29.77,ESE,103,0.0,0.0,97,0.00,,,0.00,Wunderground v.1.15,2013-09-02 08:29:00,
2013-09-02 04:35:00,68.2,67.3,29.77,ESE,103,0.0,0.0,97,0.00,,,0.00,Wunderground v.1.15,2013-09-02 08:35:00,
2013-09-02 04:40:00,68.3,67.4,29.77,ESE,103,0.0,0.0,97,0.00,,,0.00,Wunderground v.1.15,2013-09-02 08:40:00,
2013-09-02 04:45:00,68.3,67.4,29.77,ESE,103,0.0,0.0,97,0.00,,,0.00,Wunderground v.1.15,2013-09-02 08:45:00,
2013-09-02 04:50:00,68.3,67.4,29.77,ESE,103,0.0,0.0,97,0.00,,,0.00,Wunderground v.1.15,2013-09-02 08:50:00,
2013-09-02 04:56:00,68.3,67.4,29.77,ESE,103,0.0,0.0,97,0.00,,,0.00,Wunderground v.1.15,2013-09-02 08:56:00,
2013-09-02 05:01:00,68.4,67.5,29.77,ESE,103,0.0,0.0,97,0.00,,,0.00,Wunderground v.1.15,2013-09-02 09:01:00,
2013-09-02 05:06:00,68.4,67.5,29.77,ESE,103,0.0,0.0,97,0.00,,,0.00,Wunderground v.1.15,2013-09-02 09:06:00,
2013-09-02 05:11:00,68.4,67.5,29.77,ESE,103,0.0,0.0,97,0.00,,,0.00,Wunderground v.1.15,2013-09-02 09:11:00,
2013-09-02 05:17:00,68.3,67.4,29.76,ESE,103,0.0,0.0,97,0.00,,,0.00,Wunderground v.1.15,2013-09-02 09:17:00,
2013-09-02 05:22:00,68.3,67.4,29.76,ESE,103,0.0,0.0,97,0.00,,,0.00,Wunderground v.1.15,2013-09-02 09:22:00,
2013-09-02 05:27:00,68.2,67.3,29.76,ESE,103,0.0,0.0,97,0.00,,,0.00,Wunderground v.1.15,2013-09-02 09:27:00,
2013-09-02 05:32:00,68.1,67.2,29.76,ESE,103,0.0,0.0,97,0.00,,,0.00,Wunderground v.1.15,2013-09-02 09:32:00,
2013-09-02 05:38:00,68.0,67.1,29.76,ESE,103,0.0,0.0,97,0.00,,,0.00,Wunderground v.1.15,2013-09-02 09:38:00,
2013-09-02 05:43:00,67.9,67.0,29.76,ESE,103,0.0,0.0,97,0.00,,,0.00,Wunderground v.1.15,2013-09-02 09:43:00,
2013-09-02 05:48:00,67.8,66.9,29.76,ESE,103,0.0,0.0,97,0.00,,,0.00,Wunderground v.1.15,2013-09-02 09:48:00,
2013-09-02 05:53:00,67.7,66.8,29.76,ESE,103,0.0,0.0,97,0.00,,,0.00,Wunderground v.1.15,2013-09-02 09:53:00,
2013-09-02 05:58:00,67.7,66.8,29.76,ESE,103,0.0,0.0,97,0.00,,,0.00,Wunderground v.1.15,2013-09-02 09:58:00,
2013-09-02 06:04:00,67.7,66.8,29.76,ESE,103,0.0,0.0,97,0.00,,,0.00,Wunderground v.1.15,2013-09-02 10:04:00,
2013-09-02 06:09:00,67.7,66.8,29.77,ESE,103,0.0,0.0,97,0.00,,,0.00,Wunderground v.1.15,2013-09-02 10:09:00,
2013-09-02 06:15:00,67.7,66.8,29.77,ESE,103,0.0,0.0,97,0.00,,,0.00,Wunderground v.1.15,2013-09-02 10:15:00,
2013-09-02 06:20:00,67.8,66.9,29.77,ESE,103,0.0,0.0,97,0.00,,,0.00,Wunderground v.1.15,2013-09-02 10:20:00,
2013-09-02 06:25:00,67.8,66.9,29.77,ESE,103,0.0,0.0,97,0.00,,,0.00,Wunderground v.1.15,2013-09-02 10:25:00,
2013-09-02 06:31:00,67.9,67.0,29.77,ESE,103,0.0,0.0,97,0.00,,,0.00,Wunderground v.1.15,2013-09-02 10:31:00,
2013-09-02 06:36:00,67.9,67.0,29.78,ESE,103,0.0,0.0,97,0.00,,,0.00,Wunderground v.1.15,2013-09-02 10:36:00,
2013-09-02 06:42:00,67.9,67.0,29.78,ESE,103,0.0,0.0,97,0.00,,,0.00,Wunderground v.1.15,2013-09-02 10:42:00,
2013-09-02 06:47:00,67.8,66.9,29.78,ESE,103,0.0,0.0,97,0.00,,,0.00,Wunderground v.1.15,2013-09-02 10:47:00,
2013-09-02 06:52:00,67.8,66.9,29.78,ESE,103,0.0,0.0,97,0.00,,,0.00,Wunderground v.1.15,2013-09-02 10:52:00,
2013-09-02 06:57:00,67.8,66.9,29.78,ESE,103,0.0,0.0,97,0.00,,,0.00,Wunderground v.1.15,2013-09-02 10:57:00,
2013-09-02 07:03:00,67.9,67.0,29.79,ESE,103,0.0,0.0,97,0.00,,,0.00,Wunderground v.1.15,2013-09-02 11:03:00,
2013-09-02 07:08:00,67.9,67.0,29.79,ESE,103,0.0,0.0,97,0.00,,,0.00,Wunderground v.1.15,2013-09-02 11:08:00,
2013-09-02 07:13:00,68.0,67.1,29.79,ESE,103,0.0,0.0,97,0.00,,,0.00,Wunderground v.1.15,2013-09-02 11:13:00,
2013-09-02 07:18:00,68.0,67.1,29.79,ESE,103,0.0,0.0,97,0.00,,,0.00,Wunderground v.1.15,2013-09-02 11:18:00,
2013-09-02 07:23:00,68.0,67.1,29.79,ESE,103,0.0,0.0,97,0.00,,,0.00,Wunderground v.1.15,2013-09-02 11:23:00,
2013-09-02 07:28:00,68.0,67.1,29.79,ESE,103,0.0,0.0,97,0.00,,,0.00,Wunderground v.1.15,2013-09-02 11:28:00,
2013-09-02 07:33:00,68.0,67.1,29.78,ESE,103,0.0,0.0,97,0.00,,,0.00,Wunderground v.1.15,2013-09-02 11:33:00,
2013-09-02 07:39:00,68.1,67.2,29.79,ESE,103,0.0,0.0,97,0.00,,,0.00,Wunderground v.1.15,2013-09-02 11:39:00,
2013-09-02 07:44:00,68.2,67.3,29.79,ESE,103,0.0,0.0,97,0.00,,,0.00,Wunderground v.1.15,2013-09-02 11:44:00,
2013-09-02 07:49:00,68.3,67.4,29.79,ESE,103,0.0,0.0,97,0.00,,,0.00,Wunderground v.1.15,2013-09-02 11:49:00,
2013-09-02 07:55:00,68.7,67.8,29.79,ESE,103,0.0,0.0,97,0.00,,,0.00,Wunderground v.1.15,2013-09-02 11:55:00,
2013-09-02 08:00:00,69.0,68.1,29.79,ESE,103,0.0,0.0,97,0.00,,,0.00,Wunderground v.1.15,2013-09-02 12:00:00,
2013-09-02 08:06:00,69.3,68.4,29.79,ESE,103,0.0,0.0,97,0.00,,,0.00,Wunderground v.1.15,2013-09-02 12:06:00,
2013-09-02 08:11:00,69.4,68.5,29.79,ESE,103,0.0,0.0,97,0.00,,,0.00,Wunderground v.1.15,2013-09-02 12:11:00,
2013-09-02 08:16:00,69.5,68.6,29.79,ESE,103,0.0,0.0,97,0.00,,,0.00,Wunderground v.1.15,2013-09-02 12:16:00,
2013-09-02 08:22:00,69.7,68.8,29.79,ESE,103,0.0,0.0,97,0.00,,,0.00,Wunderground v.1.15,2013-09-02 12:22:00,
2013-09-02 08:27:00,70.1,69.2,29.79,ESE,103,0.0,0.0,97,0.00,,,0.00,Wunderground v.1.15,2013-09-02 12:27:00,
2013-09-02 08:32:00,70.3,69.4,29.79,ESE,103,0.0,0.0,97,0.00,,,0.00,Wunderground v.1.15,2013-09-02 12:32:00,
2013-09-02 08:37:00,70.3,69.4,29.79,ESE,103,0.0,0.0,97,0.00,,,0.00,Wunderground v.1.15,2013-09-02 12:37:00,
2013-09-02 08:42:00,70.2,69.3,29.79,ESE,103,0.0,0.0,97,0.00,,,0.00,Wunderground v.1.15,2013-09-02 12:42:00,
2013-09-02 08:48:00,70.2,69.3,29.79,ESE,103,0.0,0.0,97,0.00,,,0.00,Wunderground v.1.15,2013-09-02 12:48:00,
2013-09-02 08:53:00,70.3,69.4,29.79,ESE,103,0.0,0.0,97,0.00,,,0.00,Wunderground v.1.15,2013-09-02 12:53:00,
2013-09-02 08:58:00,70.5,69.6,29.79,SE,142,0.0,0.0,97,0.00,,,0.00,Wunderground v.1.15,2013-09-02 12:58:00,
2013-09-02 09:04:00,70.6,69.7,29.79,SE,142,0.0,0.0,97,0.00,,,0.00,Wunderground v.1.15,2013-09-02 13:04:00,
2013-09-02 09:09:00,70.6,69.4,29.79,SE,142,0.0,0.0,96,0.00,,,0.00,Wunderground v.1.15,2013-09-02 13:09:00,
2013-09-02 09:15:00,70.6,69.4,29.79,SE,142,0.0,0.0,96,0.00,,,0.00,Wunderground v.1.15,2013-09-02 13:15:00,
2013-09-02 09:20:00,70.8,69.6,29.80,SE,142,0.0,1.0,96,0.00,,,0.00,Wunderground v.1.15,2013-09-02 13:20:00,
2013-09-02 09:25:00,71.0,69.8,29.80,SE,142,0.0,1.0,96,0.00,,,0.00,Wunderground v.1.15,2013-09-02 13:25:00,
2013-09-02 09:30:00,71.2,70.0,29.80,SE,142,0.0,0.0,96,0.00,,,0.00,Wunderground v.1.15,2013-09-02 13:30:00,
2013-09-02 09:35:00,71.4,69.9,29.80,SSE,167,0.0,1.0,95,0.00,,,0.00,Wunderground v.1.15,2013-09-02 13:35:00,
2013-09-02 09:40:00,71.7,70.2,29.80,SSE,166,0.0,0.0,95,0.00,,,0.00,Wunderground v.1.15,2013-09-02 13:40:00,
2013-09-02 09:46:00,72.2,70.4,29.79,ESE,122,0.0,2.0,94,0.00,,,0.00,Wunderground v.1.15,2013-09-02 13:46:00,
2013-09-02 09:51:00,73.0,71.2,29.79,ESE,122,1.0,1.0,94,0.00,,,0.00,Wunderground v.1.15,2013-09-02 13:51:00,
2013-09-02 09:57:00,74.0,71.2,29.79,ESE,121,1.0,3.0,91,0.00,,,0.00,Wunderground v.1.15,2013-09-02 13:57:00,
2013-09-02 10:03:00,74.8,71.7,29.79,ESE,111,1.0,1.0,90,0.00,,,0.00,Wunderground v.1.15,2013-09-02 14:03:00,
2013-09-02 10:08:00,75.3,71.5,29.79,ESE,113,0.0,1.0,88,0.00,,,0.00,Wunderground v.1.15,2013-09-02 14:08:00,
2013-09-02 10:13:00,75.8,72.0,29.80,ESE,117,0.0,2.0,88,0.00,,,0.00,Wunderground v.1.15,2013-09-02 14:13:00,
2013-09-02 10:19:00,76.1,71.9,29.80,ESE,113,0.0,2.0,87,0.00,,,0.00,Wunderground v.1.15,2013-09-02 14:19:00,
2013-09-02 10:24:00,76.3,71.5,29.80,SE,138,0.0,1.0,85,0.00,,,0.00,Wunderground v.1.15,2013-09-02 14:24:00,
2013-09-02 10:29:00,76.1,71.3,29.80,SE,134,0.0,1.0,85,0.00,,,0.00,Wunderground v.1.15,2013-09-02 14:29:00,
2013-09-02 10:34:00,75.9,71.4,29.80,SE,134,0.0,0.0,86,0.00,,,0.00,Wunderground v.1.15,2013-09-02 14:34:00,
2013-09-02 10:39:00,75.7,71.6,29.80,SE,134,0.0,0.0,87,0.00,,,0.00,Wunderground v.1.15,2013-09-02 14:39:00,
2013-09-02 10:44:00,75.5,71.4,29.80,SE,134,0.0,0.0,87,0.00,,,0.00,Wunderground v.1.15,2013-09-02 14:44:00,
2013-09-02 10:49:00,75.4,71.6,29.80,SE,134,0.0,0.0,88,0.00,,,0.00,Wunderground v.1.15,2013-09-02 14:49:00,
2013-09-02 10:55:00,75.6,71.8,29.80,SE,134,0.0,0.0,88,0.00,,,0.00,Wunderground v.1.15,2013-09-02 14:55:00,
2013-09-02 11:00:00,75.8,72.0,29.80,ESE,123,0.0,0.0,88,0.00,,,0.00,Wunderground v.1.15,2013-09-02 15:00:00,
2013-09-02 11:06:00,75.9,72.1,29.80,ESE,123,0.0,0.0,88,0.00,,,0.00,Wunderground v.1.15,2013-09-02 15:06:00,
2013-09-02 11:11:00,76.0,72.5,29.80,ESE,123,0.0,0.0,89,0.00,,,0.00,Wunderground v.1.15,2013-09-02 15:11:00,
2013-09-02 11:16:00,76.4,72.6,29.80,ESE,115,0.0,1.0,88,0.00,,,0.00,Wunderground v.1.15,2013-09-02 15:16:00,
2013-09-02 11:21:00,76.7,72.2,29.80,ESE,115,0.0,0.0,86,0.00,,,0.00,Wunderground v.1.15,2013-09-02 15:21:00,
2013-09-02 11:26:00,77.1,72.6,29.80,ESE,113,0.0,0.0,86,0.00,,,0.00,Wunderground v.1.15,2013-09-02 15:26:00,
2013-09-02 11:31:00,77.3,72.1,29.80,SE,141,0.0,1.0,84,0.00,,,0.00,Wunderground v.1.15,2013-09-02 15:31:00,
2013-09-02 11:37:00,77.4,72.2,29.80,East,90,0.0,1.0,84,0.00,,,0.00,Wunderground v.1.15,2013-09-02 15:37:00,
2013-09-02 11:42:00,77.5,72.6,29.79,ENE,74,0.0,0.0,85,0.00,,,0.00,Wunderground v.1.15,2013-09-02 15:42:00,
2013-09-02 11:47:00,78.2,73.3,29.79,ESE,113,0.0,2.0,85,0.00,,,0.00,Wunderground v.1.15,2013-09-02 15:47:00,
2013-09-02 11:53:00,78.8,72.8,29.79,South,169,0.0,2.0,82,0.00,,,0.00,Wunderground v.1.15,2013-09-02 15:53:00,
2013-09-02 11:58:00,78.9,72.9,29.79,ESE,107,0.0,2.0,82,0.00,,,0.00,Wunderground v.1.15,2013-09-02 15:58:00,
2013-09-02 12:03:00,79.0,73.0,29.79,East,96,0.0,0.0,82,0.00,,,0.00,Wunderground v.1.15,2013-09-02 16:03:00,
2013-09-02 12:08:00,79.7,73.3,29.79,SE,132,0.0,3.0,81,0.00,,,0.00,Wunderground v.1.15,2013-09-02 16:08:00,
2013-09-02 12:13:00,79.9,72.8,29.79,ESE,106,1.0,4.0,79,0.00,,,0.00,Wunderground v.1.15,2013-09-02 16:13:00,
2013-09-02 12:19:00,79.4,72.3,29.79,North,360,1.0,4.0,79,0.00,,,0.00,Wunderground v.1.15,2013-09-02 16:19:00,
2013-09-02 12:24:00,79.5,72.8,29.79,East,83,0.0,1.0,80,0.00,,,0.00,Wunderground v.1.15,2013-09-02 16:24:00,
2013-09-02 12:29:00,79.6,73.3,29.78,South,175,0.0,1.0,81,0.00,,,0.00,Wunderground v.1.15,2013-09-02 16:29:00,
2013-09-02 12:34:00,79.7,72.6,29.79,SSE,151,0.0,1.0,79,0.00,,,0.00,Wunderground v.1.15,2013-09-02 16:34:00,
2013-09-02 12:40:00,79.9,73.5,29.78,ESE,104,0.0,0.0,81,0.00,,,0.00,Wunderground v.1.15,2013-09-02 16:40:00,
2013-09-02 12:45:00,80.3,73.6,29.78,ENE,61,0.0,1.0,80,0.00,,,0.00,Wunderground v.1.15,2013-09-02 16:45:00,
2013-09-02 12:50:00,81.2,73.7,29.78,East,101,1.0,5.0,78,0.00,,,0.00,Wunderground v.1.15,2013-09-02 16:50:00,
2013-09-02 12:55:00,81.6,73.3,29.78,ESE,117,1.0,5.0,76,0.00,,,0.00,Wunderground v.1.15,2013-09-02 16:55:00,
2013-09-02 13:00:00,82.0,73.7,29.77,ESE,106,1.0,1.0,76,0.00,,,0.00,Wunderground v.1.15,2013-09-02 17:00:00,
2013-09-02 13:06:00,82.3,73.2,29.77,ENE,57,1.0,4.0,74,0.00,,,0.00,Wunderground v.1.15,2013-09-02 17:06:00,
2013-09-02 13:11:00,82.5,73.0,29.77,NE,56,1.0,1.0,73,0.00,,,0.00,Wunderground v.1.15,2013-09-02 17:11:00,
2013-09-02 13:16:00,82.6,72.2,29.77,ESE,107,1.0,3.0,71,0.00,,,0.00,Wunderground v.1.15,2013-09-02 17:16:00,
2013-09-02 13:21:00,83.2,74.0,29.77,ENE,76,1.0,1.0,74,0.00,,,0.00,Wunderground v.1.15,2013-09-02 17:21:00,
2013-09-02 13:27:00,83.6,73.6,29.77,ESE,103,1.0,2.0,72,0.00,,,0.00,Wunderground v.1.15,2013-09-02 17:27:00,
2013-09-02 13:32:00,84.0,73.2,29.77,SE,138,1.0,2.0,70,0.00,,,0.00,Wunderground v.1.15,2013-09-02 17:32:00,
2013-09-02 13:37:00,84.3,71.7,29.77,South,172,1.0,5.0,66,0.00,,,0.00,Wunderground v.1.15,2013-09-02 17:37:00,
2013-09-02 13:43:00,83.9,71.3,29.76,South,169,1.0,2.0,66,0.00,,,0.00,Wunderground v.1.15,2013-09-02 17:43:00,
2013-09-02 13:48:00,83.6,73.2,29.76,East,96,1.0,2.0,71,0.00,,,0.00,Wunderground v.1.15,2013-09-02 17:48:00,
2013-09-02 13:53:00,83.8,73.4,29.76,ENE,57,1.0,1.0,71,0.00,,,0.00,Wunderground v.1.15,2013-09-02 17:53:00,
2013-09-02 13:58:00,83.9,73.1,29.76,SE,140,1.0,3.0,70,0.00,,,0.00,Wunderground v.1.15,2013-09-02 17:58:00,
2013-09-02 14:04:00,84.0,74.4,29.75,ESE,119,1.0,3.0,73,0.00,,,0.00,Wunderground v.1.15,2013-09-02 18:04:00,
2013-09-02 14:09:00,83.8,73.4,29.75,East,99,0.0,3.0,71,0.00,,,0.00,Wunderground v.1.15,2013-09-02 18:09:00,
2013-09-02 14:14:00,84.1,73.7,29.75,South,170,0.0,1.0,71,0.00,,,0.00,Wunderground v.1.15,2013-09-02 18:14:00,
2013-09-02 14:20:00,84.1,73.7,29.75,East,82,0.0,0.0,71,0.00,,,0.00,Wunderground v.1.15,2013-09-02 18:20:00,
2013-09-02 14:25:00,84.3,74.3,29.75,ESE,106,1.0,4.0,72,0.00,,,0.00,Wunderground v.1.15,2013-09-02 18:25:00,
2013-09-02 14:30:00,84.5,74.1,29.75,SSE,148,1.0,1.0,71,0.00,,,0.00,Wunderground v.1.15,2013-09-02 18:30:00,
2013-09-02 14:35:00,84.3,73.4,29.75,ENE,58,1.0,3.0,70,0.00,,,0.00,Wunderground v.1.15,2013-09-02 18:35:00,
2013-09-02 14:41:00,84.2,74.2,29.75,East,90,1.0,2.0,72,0.00,,,0.00,Wunderground v.1.15,2013-09-02 18:41:00,
2013-09-02 14:46:00,83.5,72.3,29.74,NNE,20,1.0,4.0,69,0.00,,,0.00,Wunderground v.1.15,2013-09-02 18:46:00,
2013-09-02 14:52:00,82.8,72.0,29.74,East,96,1.0,1.0,70,0.00,,,0.00,Wunderground v.1.15,2013-09-02 18:52:00,
2013-09-02 14:57:00,82.3,73.2,29.73,East,96,0.0,1.0,74,0.00,,,0.00,Wunderground v.1.15,2013-09-02 18:57:00,
2013-09-02 15:02:00,82.2,74.3,29.73,East,96,0.0,0.0,77,0.00,,,0.00,Wunderground v.1.15,2013-09-02 19:02:00,
2013-09-02 15:07:00,82.0,73.3,29.73,ENE,77,0.0,1.0,75,0.00,,,0.00,Wunderground v.1.15,2013-09-02 19:07:00,
2013-09-02 15:12:00,81.6,72.9,29.73,East,82,0.0,0.0,75,0.00,,,0.00,Wunderground v.1.15,2013-09-02 19:12:00,
2013-09-02 15:18:00,81.6,72.1,29.73,ESE,119,0.0,2.0,73,0.00,,,0.00,Wunderground v.1.15,2013-09-02 19:18:00,
2013-09-02 15:23:00,82.0,72.1,29.73,ESE,114,1.0,3.0,72,0.00,,,0.00,Wunderground v.1.15,2013-09-02 19:23:00,
2013-09-02 15:28:00,82.6,71.0,29.73,SE,142,1.0,4.0,68,0.00,,,0.00,Wunderground v.1.15,2013-09-02 19:28:00,
2013-09-02 15:34:00,83.1,73.5,29.73,NNE,33,1.0,1.0,73,0.00,,,0.00,Wunderground v.1.15,2013-09-02 19:34:00,
2013-09-02 15:39:00,83.1,72.7,29.73,SSE,166,0.0,2.0,71,0.00,,,0.00,Wunderground v.1.15,2013-09-02 19:39:00,
2013-09-02 15:44:00,83.0,72.2,29.73,West,268,1.0,1.0,70,0.00,,,0.00,Wunderground v.1.15,2013-09-02 19:44:00,
2013-09-02 15:49:00,83.1,73.9,29.73,ESE,119,1.0,3.0,74,0.00,,,0.00,Wunderground v.1.15,2013-09-02 19:49:00,
2013-09-02 15:54:00,83.1,71.0,29.72,SSW,213,1.0,3.0,67,0.00,,,0.00,Wunderground v.1.15,2013-09-02 19:54:00,
2013-09-02 16:00:00,82.9,70.8,29.72,ESE,103,1.0,1.0,67,0.00,,,0.00,Wunderground v.1.15,2013-09-02 20:00:00,
2013-09-02 16:06:00,82.5,70.9,29.72,SSE,151,1.0,3.0,68,0.00,,,0.00,Wunderground v.1.15,2013-09-02 20:06:00,
2013-09-02 16:11:00,82.3,71.1,29.72,ESE,104,1.0,1.0,69,0.00,,,0.00,Wunderground v.1.15,2013-09-02 20:11:00,
2013-09-02 16:16:00,82.0,72.5,29.72,ENE,57,1.0,1.0,73,0.00,,,0.00,Wunderground v.1.15,2013-09-02 20:16:00,
2013-09-02 16:22:00,81.6,72.5,29.71,ENE,59,0.0,2.0,74,0.00,,,0.00,Wunderground v.1.15,2013-09-02 20:22:00,
2013-09-02 16:27:00,81.6,70.9,29.72,ESE,118,1.0,2.0,70,0.00,,,0.00,Wunderground v.1.15,2013-09-02 20:27:00,
2013-09-02 16:32:00,81.8,71.5,29.71,SSW,210,1.0,1.0,71,0.00,,,0.00,Wunderground v.1.15,2013-09-02 20:32:00,
2013-09-02 16:37:00,81.9,73.6,29.71,SE,138,1.0,2.0,76,0.00,,,0.00,Wunderground v.1.15,2013-09-02 20:37:00,
2013-09-02 16:43:00,81.7,72.2,29.71,NW,306,0.0,2.0,73,0.00,,,0.00,Wunderground v.1.15,2013-09-02 20:43:00,
2013-09-02 16:48:00,81.3,71.0,29.71,SSE,160,1.0,3.0,71,0.00,,,0.00,Wunderground v.1.15,2013-09-02 20:48:00,
2013-09-02 16:53:00,81.3,71.8,29.71,East,88,1.0,1.0,73,0.00,,,0.00,Wunderground v.1.15,2013-09-02 20:53:00,
2013-09-02 16:58:00,81.3,71.4,29.71,SSW,192,0.0,2.0,72,0.00,,,0.00,Wunderground v.1.15,2013-09-02 20:58:00,
2013-09-02 17:03:00,81.5,72.0,29.72,ENE,64,1.0,1.0,73,0.00,,,0.00,Wunderground v.1.15,2013-09-02 21:03:00,
2013-09-02 17:09:00,81.4,73.5,29.72,SE,133,0.0,3.0,77,0.00,,,0.00,Wunderground v.1.15,2013-09-02 21:09:00,
2013-09-02 17:14:00,81.2,72.1,29.71,SE,145,0.0,1.0,74,0.00,,,0.00,Wunderground v.1.15,2013-09-02 21:14:00,
2013-09-02 17:19:00,81.1,72.4,29.71,SSW,206,0.0,2.0,75,0.00,,,0.00,Wunderground v.1.15,2013-09-02 21:19:00,
2013-09-02 17:25:00,80.5,73.0,29.71,SSW,193,0.0,0.0,78,0.00,,,0.00,Wunderground v.1.15,2013-09-02 21:25:00,
2013-09-02 17:30:00,80.2,71.2,29.72,SSE,155,0.0,0.0,74,0.00,,,0.00,Wunderground v.1.15,2013-09-02 21:30:00,
2013-09-02 17:35:00,79.8,72.3,29.72,NE,55,0.0,0.0,78,0.00,,,0.00,Wunderground v.1.15,2013-09-02 21:35:00,
2013-09-02 17:41:00,79.2,71.7,29.72,SSE,152,0.0,0.0,78,0.00,,,0.00,Wunderground v.1.15,2013-09-02 21:41:00,
2013-09-02 17:47:00,79.0,70.8,29.72,SW,223,1.0,3.0,76,0.00,,,0.00,Wunderground v.1.15,2013-09-02 21:47:00,
2013-09-02 17:52:00,78.7,72.0,29.72,SW,223,0.0,0.0,80,0.00,,,0.00,Wunderground v.1.15,2013-09-02 21:52:00,
2013-09-02 17:57:00,78.2,71.5,29.72,West,271,0.0,0.0,80,0.00,,,0.00,Wunderground v.1.15,2013-09-02 21:57:00,
2013-09-02 18:02:00,77.9,71.2,29.72,West,271,0.0,0.0,80,0.00,,,0.00,Wunderground v.1.15,2013-09-02 22:02:00,
2013-09-02 18:08:00,77.3,71.0,29.72,West,271,0.0,0.0,81,0.00,,,0.00,Wunderground v.1.15,2013-09-02 22:08:00,
2013-09-02 18:13:00,76.9,71.0,29.72,West,271,0.0,0.0,82,0.00,,,0.00,Wunderground v.1.15,2013-09-02 22:13:00,
2013-09-02 18:19:00,76.5,70.9,29.72,WSW,237,0.0,0.0,83,0.00,,,0.00,Wunderground v.1.15,2013-09-02 22:19:00,
2013-09-02 18:24:00,76.3,71.1,29.72,WSW,237,0.0,0.0,84,0.00,,,0.00,Wunderground v.1.15,2013-09-02 22:24:00,
2013-09-02 18:29:00,76.0,70.8,29.72,WSW,237,0.0,0.0,84,0.00,,,0.00,Wunderground v.1.15,2013-09-02 22:29:00,
2013-09-02 18:35:00,75.8,71.0,29.71,NW,304,0.0,2.0,85,0.00,,,0.00,Wunderground v.1.15,2013-09-02 22:35:00,
2013-09-02 18:40:00,75.7,69.8,29.71,NNE,14,0.0,0.0,82,0.00,,,0.00,Wunderground v.1.15,2013-09-02 22:40:00,
2013-09-02 18:45:00,75.7,70.5,29.72,NNE,14,0.0,0.0,84,0.00,,,0.00,Wunderground v.1.15,2013-09-02 22:45:00,
2013-09-02 18:50:00,75.8,70.6,29.72,NNE,14,0.0,0.0,84,0.00,,,0.00,Wunderground v.1.15,2013-09-02 22:50:00,
2013-09-02 18:56:00,75.8,70.6,29.72,NNE,32,0.0,0.0,84,0.00,,,0.00,Wunderground v.1.15,2013-09-02 22:56:00,
2013-09-02 19:02:00,75.6,71.1,29.72,NNE,33,0.0,0.0,86,0.00,,,0.00,Wunderground v.1.15,2013-09-02 23:02:00,
2013-09-02 19:07:00,75.2,70.4,29.74,East,86,1.0,4.0,85,1.25,,,0.03,Wunderground v.1.15,2013-09-02 23:07:00,
2013-09-02 19:12:00,74.5,70.0,29.75,ESE,117,1.0,1.0,86,0.14,,,0.04,Wunderground v.1.15,2013-09-02 23:12:00,
2013-09-02 19:18:00,73.5,69.4,29.74,SSE,156,1.0,2.0,87,0.24,,,0.07,Wunderground v.1.15,2013-09-02 23:18:00,
2013-09-02 19:23:00,72.8,69.0,29.75,ENE,78,1.0,1.0,88,1.41,,,0.10,Wunderground v.1.15,2013-09-02 23:23:00,
2013-09-02 19:28:00,72.4,69.3,29.74,East,93,0.0,1.0,90,0.15,,,0.13,Wunderground v.1.15,2013-09-02 23:28:00,
2013-09-02 19:33:00,72.1,69.3,29.74,East,93,0.0,0.0,91,0.11,,,0.13,Wunderground v.1.15,2013-09-02 23:33:00,
2013-09-02 19:39:00,71.9,69.4,29.74,East,93,0.0,0.0,92,0.05,,,0.13,Wunderground v.1.15,2013-09-02 23:39:00,
2013-09-02 19:44:00,71.7,69.3,29.75,East,93,0.0,0.0,92,0.04,,,0.13,Wunderground v.1.15,2013-09-02 23:44:00,
2013-09-02 19:49:00,71.6,69.5,29.74,East,93,0.0,0.0,93,0.00,,,0.13,Wunderground v.1.15,2013-09-02 23:49:00,
2013-09-02 19:55:00,71.5,69.7,29.74,East,93,0.0,0.0,94,0.00,,,0.13,Wunderground v.1.15,2013-09-02 23:55:00,
2013-09-02 20:00:00,71.5,69.7,29.74,East,93,0.0,0.0,94,0.00,,,0.13,Wunderground v.1.15,2013-09-03 00:00:00,
2013-09-02 20:06:00,71.4,69.6,29.74,East,93,0.0,0.0,94,0.00,,,0.13,Wunderground v.1.15,2013-09-03 00:06:00,
2013-09-02 20:11:00,71.3,69.5,29.74,East,93,0.0,0.0,94,0.00,,,0.13,Wunderground v.1.15,2013-09-03 00:11:00,
2013-09-02 20:16:00,71.3,69.5,29.74,East,93,0.0,0.0,94,0.00,,,0.13,Wunderground v.1.15,2013-09-03 00:16:00,
2013-09-02 20:22:00,71.2,69.4,29.74,East,93,0.0,0.0,94,0.00,,,0.13,Wunderground v.1.15,2013-09-03 00:22:00,
2013-09-02 20:27:00,71.1,69.3,29.74,East,93,0.0,0.0,94,0.00,,,0.13,Wunderground v.1.15,2013-09-03 00:27:00,
2013-09-02 20:32:00,71.0,69.2,29.75,East,93,0.0,0.0,94,0.00,,,0.13,Wunderground v.1.15,2013-09-03 00:32:00,
2013-09-02 20:38:00,70.9,69.4,29.76,East,93,0.0,0.0,95,0.00,,,0.13,Wunderground v.1.15,2013-09-03 00:38:00,
2013-09-02 20:43:00,70.9,69.4,29.76,East,93,0.0,0.0,95,0.00,,,0.13,Wunderground v.1.15,2013-09-03 00:43:00,
2013-09-02 20:48:00,70.9,69.4,29.76,East,93,0.0,0.0,95,0.00,,,0.13,Wunderground v.1.15,2013-09-03 00:48:00,
2013-09-02 21:14:00,71.0,69.5,29.77,East,93,0.0,0.0,95,0.00,,,0.13,Wunderground v.1.15,2013-09-03 01:14:00,
2013-09-02 21:16:00,71.0,69.5,29.77,East,93,0.0,0.0,95,0.00,,,0.13,Wunderground v.1.15,2013-09-03 01:16:00,
2013-09-02 21:21:00,71.0,69.8,29.78,East,93,0.0,0.0,96,0.00,,,0.13,Wunderground v.1.15,2013-09-03 01:21:00,
2013-09-02 21:26:00,71.1,69.9,29.78,ENE,57,0.0,0.0,96,0.00,,,0.13,Wunderground v.1.15,2013-09-03 01:26:00,
2013-09-02 21:31:00,71.0,69.5,29.78,ENE,57,0.0,0.0,95,0.00,,,0.13,Wunderground v.1.15,2013-09-03 01:31:00,
2013-09-02 21:37:00,70.9,69.4,29.79,ESE,117,0.0,2.0,95,0.00,,,0.13,Wunderground v.1.15,2013-09-03 01:37:00,
2013-09-02 21:43:00,70.7,68.9,29.79,ESE,117,0.0,0.0,94,0.00,,,0.13,Wunderground v.1.15,2013-09-03 01:43:00,
2013-09-02 21:48:00,70.5,68.7,29.79,ESE,117,0.0,0.0,94,0.00,,,0.13,Wunderground v.1.15,2013-09-03 01:48:00,
2013-09-02 21:53:00,70.2,68.4,29.79,ESE,117,0.0,0.0,94,0.00,,,0.13,Wunderground v.1.15,2013-09-03 01:53:00,
2013-09-02 21:59:00,70.0,68.2,29.79,ESE,117,0.0,0.0,94,0.00,,,0.13,Wunderground v.1.15,2013-09-03 01:59:00,
2013-09-02 22:04:00,69.8,68.0,29.79,ESE,117,0.0,0.0,94,0.00,,,0.13,Wunderground v.1.15,2013-09-03 02:04:00,
2013-09-02 22:09:00,69.6,67.8,29.79,ESE,117,0.0,0.0,94,0.00,,,0.13,Wunderground v.1.15,2013-09-03 02:09:00,
2013-09-02 22:15:00,69.3,67.5,29.79,ESE,117,0.0,0.0,94,0.00,,,0.13,Wunderground v.1.15,2013-09-03 02:15:00,
2013-09-02 22:20:00,69.1,67.3,29.80,ESE,117,0.0,0.0,94,0.00,,,0.13,Wunderground v.1.15,2013-09-03 02:20:00,
2013-09-02 22:25:00,69.0,67.5,29.80,ESE,117,0.0,0.0,95,0.00,,,0.13,Wunderground v.1.15,2013-09-03 02:25:00,
2013-09-02 22:30:00,68.9,67.4,29.80,ESE,117,0.0,0.0,95,0.00,,,0.13,Wunderground v.1.15,2013-09-03 02:30:00,
2013-09-02 22:36:00,68.7,67.2,29.80,ESE,117,0.0,0.0,95,0.00,,,0.13,Wunderground v.1.15,2013-09-03 02:36:00,
2013-09-02 22:41:00,68.5,66.7,29.81,ESE,117,0.0,0.0,94,0.00,,,0.13,Wunderground v.1.15,2013-09-03 02:41:00,
2013-09-02 22:46:00,68.4,66.6,29.81,ESE,117,0.0,0.0,94,0.00,,,0.13,Wunderground v.1.15,2013-09-03 02:46:00,
2013-09-02 22:51:00,68.2,66.4,29.81,ESE,117,0.0,0.0,94,0.00,,,0.13,Wunderground v.1.15,2013-09-03 02:51:00,
2013-09-02 22:57:00,67.9,66.1,29.81,ESE,117,0.0,0.0,94,0.00,,,0.13,Wunderground v.1.15,2013-09-03 02:57:00,
2013-09-02 23:03:00,67.7,65.9,29.82,ESE,117,0.0,0.0,94,0.00,,,0.13,Wunderground v.1.15,2013-09-03 03:03:00,
2013-09-02 23:08:00,67.6,66.1,29.82,ESE,117,0.0,0.0,95,0.00,,,0.13,Wunderground v.1.15,2013-09-03 03:08:00,
2013-09-02 23:13:00,67.4,65.9,29.82,ESE,117,0.0,0.0,95,0.00,,,0.13,Wunderground v.1.15,2013-09-03 03:13:00,
2013-09-02 23:18:00,67.2,65.4,29.82,ESE,117,0.0,0.0,94,0.00,,,0.13,Wunderground v.1.15,2013-09-03 03:18:00,
2013-09-02 23:23:00,67.1,65.6,29.82,ESE,117,0.0,0.0,95,0.00,,,0.13,Wunderground v.1.15,2013-09-03 03:23:00,
2013-09-02 23:28:00,66.9,65.4,29.82,ESE,117,0.0,0.0,95,0.00,,,0.13,Wunderground v.1.15,2013-09-03 03:28:00,
2013-09-02 23:34:00,66.8,65.3,29.82,ESE,117,0.0,0.0,95,0.00,,,0.13,Wunderground v.1.15,2013-09-03 03:34:00,
2013-09-02 23:39:00,66.7,65.2,29.82,ESE,117,0.0,0.0,95,0.00,,,0.13,Wunderground v.1.15,2013-09-03 03:39:00,
2013-09-02 23:44:00,66.5,65.0,29.82,ESE,117,0.0,0.0,95,0.00,,,0.13,Wunderground v.1.15,2013-09-03 03:44:00,
2013-09-02 23:50:00,66.3,64.8,29.82,ESE,117,0.0,0.0,95,0.00,,,0.13,Wunderground v.1.15,2013-09-03 03:50:00,
2013-09-02 23:55:00,66.2,64.7,29.82,ESE,117,0.0,0.0,95,0.00,,,0.13,Wunderground v.1.15,2013-09-03 03:55:00,